Regional Weather Roundup
Issued by NWS Portland, ME

Current Version | Previous Version | Text Only | Print | Product List | Glossary Off
Versions: 1 2 3 4 5 6 7 8 9 10 11 12 13 14 15 16 17 18 19 20 21 22 23 24 25 26 27 28 29 30 31 32 33 34 35 36 37 38 39 40 41 42 43 44 45 46 47 48 49 50
169 ASUS41 KGYX 181510 RWRGYX WEATHER ROUNDUP FOR MAINE AND NEW HAMPSHIRE NATIONAL WEATHER SERVICE GRAY ME 1100 AM EDT MON JUN 18 2018 MEZ002-005-006-010-012-015-018-020-021-024-026-027-029-181600- MAINE CITY SKY/WX TMP DP RH WIND PRES REMARKS PORTLAND CLOUDY 81 64 56 S12 29.82F SANFORD FAIR 83 66 56 W9 29.85F BAR HARBOR PTSUNNY 61 58 90 S10 29.83F WISCASSET FAIR 71 60 68 S6 29.84F ROCKLAND FAIR 67 59 75 W14 29.84F FRYEBURG FAIR 83 66 56 W10 29.81F LEWISTONAUBURN FAIR 79 64 60 S12 29.81F AUGUSTA FAIR 70 61 73 SE5 29.82F WATERVILLE FAIR 65 60 84 VRB3 29.79F BANGOR LGT RAIN 61 59 93 S9 29.79F FOG GREENVILLE N/A 65 63 93 VRB3 29.76F MILLINOCKET LGT RAIN 63 58 83 VRB5 29.75F HOULTON CLOUDY 60 58 92 SW12G18 29.71F PRESQUE ISLE LGT RAIN 57 55 93 S9 29.69F FRENCHVILLE FOG 59 56 89 S9 29.64F VSB 1/4 CARIBOU CLOUDY 57 55 93 S7 29.66F $$ NHZ002-005-008-009-011-012-014-181600- NEW HAMPSHIRE CITY SKY/WX TMP DP RH WIND PRES REMARKS ROCHESTER FAIR 82 67 60 VRB3 29.84F NASHUA FAIR 82 67 60 VRB5 29.88F MANCHESTER PTSUNNY 84 64 50 S14 29.85F CONCORD FAIR 82 66 58 S6 29.86F PLYMOUTH FAIR 78 62 57 CALM 29.84F BERLIN FAIR 81 65 58 SW5 29.82F WHITEFIELD HAZE 82 65 56 W7 29.83F VSB 1/2 JAFFREY FAIR 82 66 58 S10 29.92F KEENE FAIR 84 66 54 SW13 29.89F LEBANON FAIR 85 66 53 SW7 29.84F MT WASHINGTON FOG 57 57 100 W55 N/A VSB 0 $$ VTZ005-007-008-181600- VERMONT CITY SKY/WX TMP DP RH WIND PRES REMARKS ST JOHNSBURY N/A 80 64 58 MISG 29.79F MONTPELIER FAIR 81 67 62 SW10 29.87F BURLINGTON PTSUNNY 82 65 56 S15G24 29.79F $$ MAZ007-012-024-CTZ003-RIZ002-NYZ038-NYZ072-181600- SOUTHERN NEW ENGLAND AND NY CITY SKY/WX TMP DP RH WIND PRES REMARKS BOSTON CLOUDY 83 66 56 SW16 29.89F WORCESTER FAIR 82 67 60 SW16 29.94F NANTUCKET FAIR 66 61 84 SW10 30.02F PROVIDENCE PTSUNNY 83 66 56 SW17 29.96F HARTFORD PTSUNNY 85 67 54 SW12 29.92F ALBANY PTSUNNY 83 66 56 S10 29.89F NEW YORK CITY PTSUNNY 87 66 49 SW13 29.98F $$ ANZ081-ANZ082-ANZ150-NHZ014-MEZ023>029-181600- COASTAL MARINE OBSERVATIONS STATION/POSITION TIME TEMP WIND PRES WAVE AIR SEA DIR/SP/G HT/PER (UTC) (F) (DEG/KT/KT) (MB) (FT/S) MOUNT DESERT ROC 1500 56 180/ 19/ 20 1011.3F MATINICUS ROCK 1500 58 210/ 22/ 23 1010.1F ISLE OF SHOALS 1500 76 210/ 20/ 20 1010.5F JEFFREYS LEDGE 1436 58 N/A 3/ 4 $$ .............KEY.............. WCI - WIND CHILL TC - TEMPERATURE IN CELSIUS VSB - VISIBILITY IN MILES HX - HEAT INDEX FAIR- INDICATES FEW OR NO CLOUDS BELOW 12,000 FT, WITH NO SIGNIFICANT WEATHER AND/OR OBSTRUCTIONS TO VISIBILITY.

USA.gov is the U.S. government's official web portal to all federal, state and local government web resources and services.